| time (UTC) | temp C | wind direction | speed KPH | gust KPH | rain 1hr cm | rain 24hr cm | rain mn cm | humidity % | barometer mb |
| 20260903105521 | 26 | 186 | 1.6 | 4.8 | 0.00 | 0.00 | 0.00 | 41 | 1009.7 |
| 20260903105018 | 26 | 186 | 0.0 | 4.8 | 0.00 | 0.00 | 0.00 | 40 | 1009.8 |
| 20260903104524 | 26 | 186 | 1.6 | 6.4 | 0.00 | 0.00 | 0.00 | 40 | 1010.0 |
| 20260903104017 | 26 | 186 | 1.6 | 6.4 | 0.00 | 0.00 | 0.00 | 40 | 1009.9 |
| 20260903103618 | 26 | 186 | 3.2 | 9.7 | 0.00 | 0.00 | 0.00 | 39 | 1009.9 |
| 20260903103017 | 26 | 186 | 4.8 | 9.7 | 0.00 | 0.00 | 0.00 | 39 | 1009.8 |
| 20260903102516 | 26 | 185 | 4.8 | 8.0 | 0.00 | 0.00 | 0.00 | 39 | 1009.8 |
| 20260903102019 | 27 | 167 | 3.2 | 8.0 | 0.00 | 0.00 | 0.00 | 39 | 1010.0 |
| 20260903101519 | 27 | 168 | 3.2 | 9.7 | 0.00 | 0.00 | 0.00 | 38 | 1009.9 |
| 20260903101014 | 27 | 168 | 3.2 | 9.7 | 0.00 | 0.00 | 0.00 | 38 | 1009.9 |
| 20260903100513 | 27 | 160 | 3.2 | 8.0 | 0.00 | 0.00 | 0.00 | 38 | 1009.9 |
| 20260903100021 | 27 | 160 | 4.8 | 8.0 | 0.00 | 0.00 | 0.00 | 38 | 1010.0 |
| 20260903095514 | 27 | 162 | 3.2 | 9.7 | 0.00 | 0.00 | 0.00 | 38 | 1009.9 |
| 20260903095015 | 27 | 160 | 4.8 | 9.7 | 0.00 | 0.00 | 0.00 | 37 | 1010.0 |
| 20260903094513 | 27 | 160 | 4.8 | 9.7 | 0.00 | 0.00 | 0.00 | 37 | 1010.0 |
| 20260903094011 | 27 | 160 | 3.2 | 8.0 | 0.00 | 0.00 | 0.00 | 37 | 1010.1 |
| 20260903093610 | 27 | 166 | 4.8 | 8.0 | 0.00 | 0.00 | 0.00 | 38 | 1010.2 |
| 20260903093012 | 27 | 165 | 3.2 | 8.0 | 0.00 | 0.00 | 0.00 | 37 | 1010.1 |
| 20260903092510 | 27 | 166 | 4.8 | 9.7 | 0.00 | 0.00 | 0.00 | 37 | 1010.0 |
| 20260903092009 | 27 | 166 | 4.8 | 9.7 | 0.00 | 0.00 | 0.00 | 37 | 1010.1 |
| 20260903091512 | 27 | 171 | 4.8 | 9.7 | 0.00 | 0.00 | 0.00 | 37 | 1009.9 |
| 20260903091009 | 27 | 173 | 4.8 | 11.3 | 0.00 | 0.00 | 0.00 | 36 | 1010.0 |
| 20260903090508 | 27 | 164 | 4.8 | 12.9 | 0.00 | 0.00 | 0.00 | 36 | 1010.0 |
| 20260903090008 | 27 | 171 | 4.8 | 8.0 | 0.00 | 0.00 | 0.00 | 36 | 1009.9 |
| 20260903085507 | 27 | 173 | 4.8 | 9.7 | 0.00 | 0.00 | 0.00 | 36 | 1010.0 |
| 20260903085009 | 28 | 173 | 3.2 | 9.7 | 0.00 | 0.00 | 0.00 | 35 | 1010.0 |
| 20260903084505 | 28 | 166 | 4.8 | 9.7 | 0.00 | 0.00 | 0.00 | 35 | 1010.0 |
| 20260903084005 | 28 | 166 | 4.8 | 9.7 | 0.00 | 0.00 | 0.00 | 35 | 1010.1 |
| 20260903083605 | 28 | 172 | 3.2 | 8.0 | 0.00 | 0.00 | 0.00 | 35 | 1010.1 |
| 20260903083006 | 28 | 172 | 3.2 | 8.0 | 0.00 | 0.00 | 0.00 | 35 | 1010.2 |
| 20260903082504 | 28 | 172 | 4.8 | 9.7 | 0.00 | 0.00 | 0.00 | 34 | 1010.2 |
| 20260903082004 | 28 | 173 | 3.2 | 8.0 | 0.00 | 0.00 | 0.00 | 34 | 1010.2 |
| 20260903081503 | 28 | 173 | 3.2 | 8.0 | 0.00 | 0.00 | 0.00 | 34 | 1010.2 |
| 20260903081001 | 28 | 174 | 3.2 | 8.0 | 0.00 | 0.00 | 0.00 | 33 | 1010.3 |
| 20260903080501 | 28 | 175 | 4.8 | 8.0 | 0.00 | 0.00 | 0.00 | 33 | 1010.2 |
| 20260903080001 | 28 | 175 | 3.2 | 8.0 | 0.00 | 0.00 | 0.00 | 33 | 1010.3 |
| 20260903075500 | 28 | 175 | 4.8 | 9.7 | 0.00 | 0.00 | 0.00 | 33 | 1010.3 |
| 20260903075000 | 28 | 186 | 4.8 | 12.9 | 0.00 | 0.00 | 0.00 | 32 | 1010.3 |
| 20260903074500 | 28 | 187 | 6.4 | 14.5 | 0.00 | 0.00 | 0.00 | 32 | 1010.4 |
| 20260903074100 | 28 | 193 | 8.0 | 14.5 | 0.00 | 0.00 | 0.00 | 32 | 1010.5 |
| 20260903074001 | 28 | 199 | 8.0 | 12.9 | 0.00 | 0.00 | 0.00 | 32 | 1010.5 |
| 20260903073700 | 28 | 188 | 3.2 | 9.7 | 0.00 | 0.00 | 0.00 | 32 | 1010.4 |
| 20260903072559 | 28 | 188 | 4.8 | 9.7 | 0.00 | 0.00 | 0.00 | 31 | 1010.4 |
| 20260903072100 | 28 | 191 | 3.2 | 12.9 | 0.00 | 0.00 | 0.00 | 31 | 1010.4 |
| 20260903071601 | 28 | 188 | 4.8 | 8.0 | 0.00 | 0.00 | 0.00 | 31 | 1010.4 |
| 20260903071101 | 28 | 188 | 4.8 | 8.0 | 0.00 | 0.00 | 0.00 | 31 | 1010.4 |
| 20260903070602 | 28 | 187 | 3.2 | 9.7 | 0.00 | 0.00 | 0.00 | 31 | 1010.4 |
| 20260903070106 | 28 | 187 | 4.8 | 9.7 | 0.00 | 0.00 | 0.00 | 31 | 1010.6 |
| 20260903065559 | 28 | 185 | 4.8 | 9.7 | 0.00 | 0.00 | 0.00 | 31 | 1010.4 |
| 20260903065058 | 28 | 185 | 3.2 | 9.7 | 0.00 | 0.00 | 0.00 | 30 | 1010.4 |
| 20260903064601 | 28 | 185 | 4.8 | 9.7 | 0.00 | 0.00 | 0.00 | 30 | 1010.4 |
| 20260903064058 | 28 | 184 | 4.8 | 9.7 | 0.00 | 0.00 | 0.00 | 30 | 1010.4 |
| 20260903063558 | 29 | 184 | 3.2 | 6.4 | 0.00 | 0.00 | 0.00 | 30 | 1010.5 |
| 20260903062557 | 29 | 185 | 3.2 | 8.0 | 0.00 | 0.00 | 0.00 | 30 | 1010.5 |
| 20260903062055 | 29 | 185 | 3.2 | 6.4 | 0.00 | 0.00 | 0.00 | 29 | 1010.6 |
| 20260903061557 | 29 | 186 | 3.2 | 8.0 | 0.00 | 0.00 | 0.00 | 29 | 1010.5 |
| 20260903061058 | 29 | 186 | 3.2 | 8.0 | 0.00 | 0.00 | 0.00 | 29 | 1010.5 |
| 20260903060554 | 29 | 186 | 3.2 | 8.0 | 0.00 | 0.00 | 0.00 | 29 | 1010.4 |
| 20260903060054 | 30 | 187 | 3.2 | 8.0 | 0.00 | 0.00 | 0.00 | 28 | 1010.5 |
| 20260903055552 | 30 | 187 | 4.8 | 9.7 | 0.00 | 0.00 | 0.00 | 28 | 1010.4 |
| 20260903055050 | 30 | 187 | 6.4 | 9.7 | 0.00 | 0.00 | 0.00 | 28 | 1010.4 |
| 20260903054550 | 30 | 188 | 4.8 | 9.7 | 0.00 | 0.00 | 0.00 | 27 | 1010.4 |
| 20260903054048 | 30 | 189 | 4.8 | 9.7 | 0.00 | 0.00 | 0.00 | 27 | 1010.3 |
| 20260903053552 | 31 | 193 | 4.8 | 9.7 | 0.00 | 0.00 | 0.00 | 26 | 1010.3 |
| 20260903052550 | 31 | 194 | 4.8 | 9.7 | 0.00 | 0.00 | 0.00 | 26 | 1010.3 |
| 20260903052050 | 31 | 194 | 6.4 | 12.9 | 0.00 | 0.00 | 0.00 | 26 | 1010.3 |
| 20260903051546 | 31 | 194 | 6.4 | 12.9 | 0.00 | 0.00 | 0.00 | 26 | 1010.3 |
| 20260903051048 | 31 | 195 | 4.8 | 9.7 | 0.00 | 0.00 | 0.00 | 26 | 1010.2 |
| 20260903050547 | 31 | 198 | 4.8 | 9.7 | 0.00 | 0.00 | 0.00 | 26 | 1010.2 |
| 20260903050043 | 31 | 200 | 4.8 | 9.7 | 0.00 | 0.00 | 0.00 | 26 | 1010.1 |
| 20260903045543 | 31 | 201 | 4.8 | 9.7 | 0.00 | 0.00 | 0.00 | 26 | 1010.2 |
| 20260903045047 | 31 | 201 | 4.8 | 9.7 | 0.00 | 0.00 | 0.00 | 26 | 1010.1 |
| 20260903044543 | 31 | 200 | 4.8 | 9.7 | 0.00 | 0.00 | 0.00 | 26 | 1010.1 |
| 20260903044047 | 31 | 200 | 6.4 | 9.7 | 0.00 | 0.00 | 0.00 | 26 | 1010.1 |
| 20260903043542 | 31 | 187 | 4.8 | 8.0 | 0.00 | 0.00 | 0.00 | 25 | 1010.2 |
| 20260903042543 | 31 | 187 | 4.8 | 12.9 | 0.00 | 0.00 | 0.00 | 25 | 1010.1 |
| 20260903042043 | 32 | 188 | 4.8 | 12.9 | 0.00 | 0.00 | 0.00 | 25 | 1010.1 |
| 20260903041543 | 32 | 206 | 8.0 | 12.9 | 0.00 | 0.00 | 0.00 | 25 | 1010.1 |
| 20260903041042 | 31 | 201 | 6.4 | 12.9 | 0.00 | 0.00 | 0.00 | 25 | 1010.1 |
| 20260903040545 | 31 | 204 | 8.0 | 9.7 | 0.00 | 0.00 | 0.00 | 26 | 1010.1 |
| 20260903040142 | 31 | 179 | 3.2 | 8.0 | 0.00 | 0.00 | 0.00 | 26 | 1010.2 |
| 20260903035541 | 31 | 179 | 3.2 | 6.4 | 0.00 | 0.00 | 0.00 | 26 | 1010.2 |
| 20260903035041 | 31 | 179 | 1.6 | 6.4 | 0.00 | 0.00 | 0.00 | 26 | 1010.2 |
| 20260903034542 | 31 | 179 | 3.2 | 6.4 | 0.00 | 0.00 | 0.00 | 26 | 1010.2 |
| 20260903034042 | 31 | 179 | 3.2 | 6.4 | 0.00 | 0.00 | 0.00 | 26 | 1010.2 |
| 20260903033540 | 31 | 178 | 1.6 | 6.4 | 0.00 | 0.00 | 0.00 | 25 | 1010.1 |
| 20260903032542 | 32 | 179 | 3.2 | 6.4 | 0.00 | 0.00 | 0.00 | 25 | 1010.1 |
| 20260903032041 | 32 | 178 | 3.2 | 6.4 | 0.00 | 0.00 | 0.00 | 24 | 1010.0 |
| 20260903031547 | 32 | 178 | 3.2 | 8.0 | 0.00 | 0.00 | 0.00 | 24 | 1010.0 |
| 20260903031040 | 32 | 177 | 4.8 | 8.0 | 0.00 | 0.00 | 0.00 | 23 | 1009.9 |
| 20260903030542 | 32 | 175 | 3.2 | 8.0 | 0.00 | 0.00 | 0.00 | 23 | 1009.8 |
| 20260903030041 | 32 | 175 | 3.2 | 8.0 | 0.00 | 0.00 | 0.00 | 23 | 1009.8 |
| 20260903025540 | 32 | 168 | 3.2 | 8.0 | 0.00 | 0.00 | 0.00 | 24 | 1009.7 |
| 20260903025040 | 32 | 168 | 3.2 | 6.4 | 0.00 | 0.00 | 0.00 | 24 | 1009.7 |
| 20260903024540 | 32 | 168 | 3.2 | 4.8 | 0.00 | 0.00 | 0.00 | 24 | 1009.5 |
| 20260903024040 | 32 | 168 | 1.6 | 4.8 | 0.00 | 0.00 | 0.00 | 24 | 1009.6 |
| 20260903023540 | 33 | 168 | 1.6 | 4.8 | 0.00 | 0.00 | 0.00 | 23 | 1009.4 |
| 20260903022540 | 33 | 168 | 1.6 | 6.4 | 0.00 | 0.00 | 0.00 | 22 | 1009.2 |
| 20260903022043 | 33 | 168 | 3.2 | 6.4 | 0.00 | 0.00 | 0.00 | 22 | 1009.2 |
| 20260903021541 | 33 | 168 | 3.2 | 6.4 | 0.00 | 0.00 | 0.00 | 22 | 1009.1 |
| 20260903021041 | 33 | 168 | 3.2 | 6.4 | 0.00 | 0.00 | 0.00 | 21 | 1009.1 |
| 20260903020540 | 33 | 168 | 3.2 | 6.4 | 0.00 | 0.00 | 0.00 | 21 | 1009.0 |
| 20260903020049 | 33 | 168 | 3.2 | 4.8 | 0.00 | 0.00 | 0.00 | 21 | 1009.0 |
| 20260903015540 | 33 | 168 | 0.0 | 4.8 | 0.00 | 0.00 | 0.00 | 21 | 1008.9 |
| 20260903015039 | 34 | 168 | 0.0 | 4.8 | 0.00 | 0.00 | 0.00 | 21 | 1008.8 |
| 20260903014539 | 34 | 168 | 1.6 | 4.8 | 0.00 | 0.00 | 0.00 | 21 | 1008.8 |
| 20260903014045 | 34 | 168 | 3.2 | 6.4 | 0.00 | 0.00 | 0.00 | 21 | 1008.7 |
| 20260903013543 | 35 | 168 | 3.2 | 6.4 | 0.00 | 0.00 | 0.00 | 20 | 1008.6 |
| 20260903012541 | 35 | 168 | 3.2 | 6.4 | 0.00 | 0.00 | 0.00 | 19 | 1008.6 |
| 20260903012039 | 35 | 168 | 1.6 | 8.0 | 0.00 | 0.00 | 0.00 | 19 | 1008.6 |
| 20260903011539 | 35 | 168 | 3.2 | 9.7 | 0.00 | 0.00 | 0.00 | 19 | 1008.5 |
| 20260903011038 | 35 | 168 | 3.2 | 9.7 | 0.00 | 0.00 | 0.00 | 19 | 1008.5 |
| 20260903010542 | 35 | 156 | 4.8 | 12.9 | 0.00 | 0.00 | 0.00 | 19 | 1008.4 |
| 20260903010040 | 36 | 161 | 6.4 | 12.9 | 0.00 | 0.00 | 0.00 | 18 | 1008.4 |
| 20260903005538 | 36 | 176 | 4.8 | 11.3 | 0.00 | 0.00 | 0.00 | 18 | 1008.5 |
| 20260903005037 | 36 | 182 | 4.8 | 11.3 | 0.00 | 0.00 | 0.00 | 17 | 1008.5 |
| 20260903004538 | 36 | 150 | 3.2 | 9.7 | 0.00 | 0.00 | 0.00 | 17 | 1008.4 |
| 20260903004038 | 36 | 179 | 4.8 | 12.9 | 0.00 | 0.00 | 0.00 | 16 | 1008.3 |
| 20260903003539 | 36 | 166 | 4.8 | 17.7 | 0.00 | 0.00 | 0.00 | 17 | 1008.3 |
| 20260903002537 | 36 | 158 | 6.4 | 12.9 | 0.00 | 0.00 | 0.00 | 16 | 1008.4 |
| 20260903002038 | 37 | 127 | 6.4 | 12.9 | 0.00 | 0.00 | 0.00 | 16 | 1008.4 |
| 20260903001538 | 37 | 164 | 4.8 | 16.1 | 0.00 | 0.00 | 0.00 | 15 | 1008.4 |
| 20260903001040 | 37 | 171 | 6.4 | 16.1 | 0.00 | 0.00 | 0.00 | 16 | 1008.5 |
| 20260903000536 | 37 | 165 | 6.4 | 19.3 | 0.00 | 0.00 | 0.00 | 16 | 1008.5 |
| 20260903000042 | 37 | 187 | 8.0 | 19.3 | 0.00 | 0.00 | 0.00 | 15 | 1008.6 |
| 20260902235537 | 37 | 194 | 8.0 | 16.1 | 0.00 | 0.00 | 0.00 | 15 | 1008.5 |
| 20260902235037 | 37 | 148 | 4.8 | 16.1 | 0.00 | 0.00 | 0.00 | 15 | 1008.5 |
| 20260902234537 | 37 | 170 | 4.8 | 16.1 | 0.00 | 0.00 | 0.00 | 15 | 1008.4 |
| 20260902234036 | 37 | 175 | 4.8 | 9.7 | 0.00 | 0.00 | 0.00 | 15 | 1008.5 |
| 20260902233536 | 37 | 256 | 4.8 | 12.9 | 0.00 | 0.00 | 0.00 | 15 | 1008.5 |
| 20260902232535 | 37 | 224 | 3.2 | 9.7 | 0.00 | 0.00 | 0.00 | 15 | 1008.6 |
| 20260902232036 | 37 | 179 | 3.2 | 8.0 | 0.00 | 0.00 | 0.00 | 15 | 1008.7 |
| 20260902231538 | 37 | 181 | 4.8 | 9.7 | 0.00 | 0.00 | 0.00 | 15 | 1008.7 |
| 20260902231036 | 37 | 189 | 3.2 | 11.3 | 0.00 | 0.00 | 0.00 | 14 | 1008.6 |
| 20260902230537 | 37 | 200 | 3.2 | 11.3 | 0.00 | 0.00 | 0.00 | 15 | 1008.6 |
| 20260902230037 | 37 | 68 | 4.8 | 9.7 | 0.00 | 0.00 | 0.00 | 15 | 1008.7 |
| 20260902225536 | 37 | 72 | 4.8 | 9.7 | 0.00 | 0.00 | 0.00 | 15 | 1008.8 |
| 20260902225036 | 37 | 191 | 4.8 | 14.5 | 0.00 | 0.00 | 0.00 | 15 | 1008.9 |
| 20260902224538 | 37 | 117 | 8.0 | 14.5 | 0.00 | 0.00 | 0.00 | 15 | 1008.9 |
| 20260902224033 | 37 | 156 | 3.2 | 19.3 | 0.00 | 0.00 | 0.00 | 15 | 1009.0 |
| 20260902223533 | 37 | 191 | 9.7 | 19.3 | 0.00 | 0.00 | 0.00 | 15 | 1008.9 |
| 20260902222534 | 37 | 164 | 4.8 | 14.5 | 0.00 | 0.00 | 0.00 | 15 | 1008.9 |
| 20260902222032 | 37 | 189 | 8.0 | 12.9 | 0.00 | 0.00 | 0.00 | 14 | 1009.0 |
| 20260902221533 | 37 | 213 | 3.2 | 14.5 | 0.00 | 0.00 | 0.00 | 14 | 1008.8 |
| 20260902221036 | 38 | 184 | 6.4 | 14.5 | 0.00 | 0.00 | 0.00 | 14 | 1008.9 |
| 20260902220532 | 38 | 210 | 1.6 | 14.5 | 0.00 | 0.00 | 0.00 | 13 | 1008.9 |
| 20260902220032 | 38 | 195 | 9.7 | 14.5 | 0.00 | 0.00 | 0.00 | 13 | 1008.9 |
| 20260902215531 | 38 | 112 | 1.6 | 14.5 | 0.00 | 0.00 | 0.00 | 13 | 1009.0 |
| 20260902215032 | 38 | 197 | 1.6 | 16.1 | 0.00 | 0.00 | 0.00 | 13 | 1009.0 |
| 20260902214533 | 38 | 196 | 6.4 | 14.5 | 0.00 | 0.00 | 0.00 | 12 | 1009.0 |
| 20260902214030 | 39 | 100 | 4.8 | 12.9 | 0.00 | 0.00 | 0.00 | 13 | 1009.1 |
| 20260902213529 | 39 | 1 | 3.2 | 12.9 | 0.00 | 0.00 | 0.00 | 12 | 1009.2 |
| 20260902212530 | 38 | 56 | 4.8 | 8.0 | 0.00 | 0.00 | 0.00 | 13 | 1009.2 |
| 20260902212028 | 38 | 202 | 3.2 | 9.7 | 0.00 | 0.00 | 0.00 | 14 | 1009.3 |
| 20260902211527 | 37 | 202 | 1.6 | 16.1 | 0.00 | 0.00 | 0.00 | 15 | 1009.6 |
| 20260902211027 | 37 | 191 | 3.2 | 16.1 | 0.00 | 0.00 | 0.00 | 15 | 1009.6 |
| 20260902210527 | 37 | 239 | 3.2 | 17.7 | 0.00 | 0.00 | 0.00 | 16 | 1009.6 |
| 20260902210027 | 37 | 251 | 9.7 | 17.7 | 0.00 | 0.00 | 0.00 | 16 | 1009.7 |
| 20260902205526 | 37 | 175 | 8.0 | 17.7 | 0.00 | 0.00 | 0.00 | 15 | 1009.8 |
| 20260902205025 | 37 | 193 | 8.0 | 14.5 | 0.00 | 0.00 | 0.00 | 15 | 1009.9 |
| 20260902204538 | 37 | 1 | 1.6 | 9.7 | 0.00 | 0.00 | 0.00 | 14 | 1009.9 |
| 20260902204028 | 37 | 308 | 3.2 | 9.7 | 0.00 | 0.00 | 0.00 | 14 | 1009.9 |
| 20260902203528 | 37 | 241 | 1.6 | 16.1 | 0.00 | 0.00 | 0.00 | 15 | 1010.2 |
| 20260902202523 | 37 | 226 | 3.2 | 14.5 | 0.00 | 0.00 | 0.00 | 15 | 1010.4 |
| 20260902202021 | 37 | 246 | 6.4 | 16.1 | 0.00 | 0.00 | 0.00 | 16 | 1010.5 |
| 20260902201521 | 37 | 210 | 9.7 | 19.3 | 0.00 | 0.00 | 0.00 | 16 | 1010.5 |
| 20260902201020 | 37 | 220 | 12.9 | 20.9 | 0.00 | 0.00 | 0.00 | 17 | 1010.5 |
| 20260902200521 | 37 | 196 | 11.3 | 20.9 | 0.00 | 0.00 | 0.00 | 18 | 1010.5 |
| 20260902200019 | 37 | 153 | 3.2 | 14.5 | 0.00 | 0.00 | 0.00 | 17 | 1010.6 |
| 20260902195519 | 37 | 150 | 1.6 | 14.5 | 0.00 | 0.00 | 0.00 | 17 | 1010.6 |
| 20260902195017 | 37 | 184 | 4.8 | 11.3 | 0.00 | 0.00 | 0.00 | 17 | 1010.6 |
| 20260902194517 | 36 | 15 | 3.2 | 19.3 | 0.00 | 0.00 | 0.00 | 17 | 1010.7 |
| 20260902194016 | 37 | 198 | 6.4 | 16.1 | 0.00 | 0.00 | 0.00 | 17 | 1010.8 |
| 20260902193515 | 36 | 204 | 12.9 | 24.1 | 0.00 | 0.00 | 0.00 | 18 | 1010.9 |
| 20260902192514 | 36 | 198 | 6.4 | 20.9 | 0.00 | 0.00 | 0.00 | 21 | 1011.0 |
| 20260902192013 | 36 | 117 | 11.3 | 20.9 | 0.00 | 0.00 | 0.00 | 21 | 1011.1 |
| 20260902191513 | 36 | 209 | 3.2 | 19.3 | 0.00 | 0.00 | 0.00 | 20 | 1011.2 |
| 20260902191012 | 36 | 223 | 11.3 | 19.3 | 0.00 | 0.00 | 0.00 | 20 | 1011.3 |
| 20260902190512 | 36 | 211 | 11.3 | 17.7 | 0.00 | 0.00 | 0.00 | 20 | 1011.3 |
| 20260902190011 | 35 | 170 | 4.8 | 17.7 | 0.00 | 0.00 | 0.00 | 22 | 1011.3 |
| 20260902185510 | 35 | 167 | 4.8 | 17.7 | 0.00 | 0.00 | 0.00 | 22 | 1011.5 |
| 20260902185009 | 35 | 189 | 12.9 | 20.9 | 0.00 | 0.00 | 0.00 | 22 | 1011.7 |
| 20260902184509 | 36 | 196 | 14.5 | 20.9 | 0.00 | 0.00 | 0.00 | 22 | 1011.7 |
| 20260902184008 | 35 | 65 | 6.4 | 20.9 | 0.00 | 0.00 | 0.00 | 23 | 1011.7 |
| 20260902183506 | 35 | 229 | 9.7 | 20.9 | 0.00 | 0.00 | 0.00 | 23 | 1011.8 |
| 20260902182505 | 35 | 222 | 8.0 | 19.3 | 0.00 | 0.00 | 0.00 | 24 | 1012.0 |
| 20260902182004 | 35 | 220 | 8.0 | 19.3 | 0.00 | 0.00 | 0.00 | 25 | 1012.1 |
| 20260902181503 | 35 | 234 | 8.0 | 17.7 | 0.00 | 0.00 | 0.00 | 24 | 1012.2 |
| 20260902181002 | 35 | 222 | 9.7 | 19.3 | 0.00 | 0.00 | 0.00 | 24 | 1012.3 |
| 20260902180503 | 35 | 250 | 9.7 | 19.3 | 0.00 | 0.00 | 0.00 | 25 | 1012.4 |
| 20260902180002 | 34 | 220 | 4.8 | 19.3 | 0.00 | 0.00 | 0.00 | 25 | 1012.5 |
| 20260902175600 | 34 | 205 | 11.3 | 19.3 | 0.00 | 0.00 | 0.00 | 26 | 1012.5 |
| 20260902175102 | 34 | 218 | 8.0 | 20.9 | 0.00 | 0.00 | 0.00 | 26 | 1012.5 |
| 20260902174600 | 34 | 238 | 6.4 | 19.3 | 0.00 | 0.00 | 0.00 | 27 | 1012.5 |
| 20260902174056 | 34 | 212 | 11.3 | 20.9 | 0.00 | 0.00 | 0.00 | 28 | 1012.7 |
| 20260902173555 | 33 | 200 | 11.3 | 20.9 | 0.00 | 0.00 | 0.00 | 28 | 1012.8 |
| 20260902172553 | 33 | 235 | 11.3 | 20.9 | 0.00 | 0.00 | 0.00 | 30 | 1013.1 |
| 20260902172052 | 33 | 232 | 11.3 | 20.9 | 0.00 | 0.00 | 0.00 | 30 | 1013.2 |
| 20260902171550 | 33 | 213 | 11.3 | 17.7 | 0.00 | 0.00 | 0.00 | 31 | 1013.2 |
| 20260902171050 | 32 | 243 | 6.4 | 24.1 | 0.00 | 0.00 | 0.00 | 32 | 1013.3 |
| 20260902170549 | 33 | 195 | 12.9 | 24.1 | 0.00 | 0.00 | 0.00 | 31 | 1013.4 |
| 20260902170052 | 32 | 195 | 12.9 | 19.3 | 0.00 | 0.00 | 0.00 | 32 | 1013.4 |
| 20260902165546 | 32 | 211 | 11.3 | 20.9 | 0.00 | 0.00 | 0.00 | 32 | 1013.4 |
| 20260902165045 | 32 | 214 | 11.3 | 20.9 | 0.00 | 0.00 | 0.00 | 33 | 1013.5 |
| 20260902164544 | 32 | 240 | 11.3 | 20.9 | 0.00 | 0.00 | 0.00 | 33 | 1013.5 |
| 20260902164042 | 32 | 179 | 8.0 | 17.7 | 0.00 | 0.00 | 0.00 | 35 | 1013.5 |
| 20260902163542 | 32 | 245 | 9.7 | 19.3 | 0.00 | 0.00 | 0.00 | 35 | 1013.5 |
| 20260902162542 | 31 | 199 | 8.0 | 22.5 | 0.00 | 0.00 | 0.00 | 36 | 1013.6 |
| 20260902162041 | 31 | 264 | 8.0 | 22.5 | 0.00 | 0.00 | 0.00 | 36 | 1013.7 |
| 20260902161541 | 31 | 212 | 8.0 | 19.3 | 0.00 | 0.00 | 0.00 | 37 | 1013.5 |
| 20260902161039 | 31 | 202 | 11.3 | 19.3 | 0.00 | 0.00 | 0.00 | 37 | 1013.5 |
| 20260902160538 | 31 | 216 | 6.4 | 16.1 | 0.00 | 0.00 | 0.00 | 39 | 1013.7 |
| 20260902160038 | 30 | 204 | 9.7 | 16.1 | 0.00 | 0.00 | 0.00 | 40 | 1013.6 |
| 20260902155537 | 30 | 186 | 8.0 | 17.7 | 0.00 | 0.00 | 0.00 | 41 | 1013.6 |
| 20260902155036 | 30 | 190 | 11.3 | 17.7 | 0.00 | 0.00 | 0.00 | 41 | 1013.7 |
| 20260902154538 | 30 | 204 | 6.4 | 17.7 | 0.00 | 0.00 | 0.00 | 44 | 1013.6 |
| 20260902154033 | 30 | 199 | 6.4 | 16.1 | 0.00 | 0.00 | 0.00 | 45 | 1013.6 |
| 20260902153533 | 30 | 190 | 8.0 | 17.7 | 0.00 | 0.00 | 0.00 | 44 | 1013.6 |
| 20260902152531 | 29 | 181 | 6.4 | 17.7 | 0.00 | 0.00 | 0.00 | 46 | 1013.6 |
| 20260902152032 | 29 | 187 | 6.4 | 16.1 | 0.00 | 0.00 | 0.00 | 45 | 1013.6 |
| 20260902151535 | 29 | 210 | 9.7 | 20.9 | 0.00 | 0.00 | 0.00 | 46 | 1013.6 |
| 20260902151031 | 28 | 214 | 8.0 | 17.7 | 0.00 | 0.00 | 0.00 | 46 | 1013.5 |
| 20260902150529 | 28 | 173 | 9.7 | 16.1 | 0.00 | 0.00 | 0.00 | 46 | 1013.6 |
| 20260902150028 | 28 | 199 | 9.7 | 17.7 | 0.00 | 0.00 | 0.00 | 48 | 1013.6 |
| 20260902145527 | 28 | 188 | 9.7 | 19.3 | 0.00 | 0.00 | 0.00 | 47 | 1013.5 |
| 20260902145027 | 28 | 190 | 8.0 | 19.3 | 0.00 | 0.00 | 0.00 | 48 | 1013.6 |
| 20260902144527 | 28 | 176 | 9.7 | 19.3 | 0.00 | 0.00 | 0.00 | 48 | 1013.5 |
| 20260902144027 | 28 | 190 | 11.3 | 19.3 | 0.00 | 0.00 | 0.00 | 49 | 1013.6 |
| 20260902143530 | 27 | 191 | 12.9 | 20.9 | 0.00 | 0.00 | 0.00 | 49 | 1013.5 |
| 20260902142527 | 27 | 196 | 12.9 | 19.3 | 0.00 | 0.00 | 0.00 | 50 | 1013.6 |
| 20260902142028 | 27 | 181 | 9.7 | 17.7 | 0.00 | 0.00 | 0.00 | 50 | 1013.6 |
| 20260902141526 | 27 | 177 | 11.3 | 17.7 | 0.00 | 0.00 | 0.00 | 49 | 1013.7 |
| 20260902141025 | 27 | 168 | 9.7 | 16.1 | 0.00 | 0.00 | 0.00 | 50 | 1013.7 |
| 20260902140526 | 27 | 195 | 9.7 | 16.1 | 0.00 | 0.00 | 0.00 | 50 | 1013.7 |
| 20260902140026 | 27 | 197 | 6.4 | 16.1 | 0.00 | 0.00 | 0.00 | 50 | 1013.6 |
| 20260902135524 | 27 | 167 | 6.4 | 12.9 | 0.00 | 0.00 | 0.00 | 49 | 1013.7 |
| 20260902135024 | 26 | 179 | 3.2 | 9.7 | 0.00 | 0.00 | 0.00 | 49 | 1013.5 |
| 20260902134523 | 26 | 169 | 3.2 | 9.7 | 0.00 | 0.00 | 0.00 | 49 | 1013.5 |
| 20260902134024 | 26 | 168 | 3.2 | 9.7 | 0.00 | 0.00 | 0.00 | 49 | 1013.5 |
| 20260902133522 | 26 | 166 | 3.2 | 4.8 | 0.00 | 0.00 | 0.00 | 48 | 1013.4 |
| 20260902132525 | 25 | 165 | 3.2 | 4.8 | 0.00 | 0.00 | 0.00 | 48 | 1013.4 |
| 20260902132020 | 25 | 165 | 3.2 | 4.8 | 0.00 | 0.00 | 0.00 | 48 | 1013.3 |
| 20260902131520 | 25 | 165 | 1.6 | 4.8 | 0.00 | 0.00 | 0.00 | 48 | 1013.4 |
| 20260902131019 | 25 | 165 | 3.2 | 6.4 | 0.00 | 0.00 | 0.00 | 48 | 1013.4 |
| 20260902130519 | 25 | 165 | 3.2 | 6.4 | 0.00 | 0.00 | 0.00 | 49 | 1013.4 |
| 20260902130018 | 25 | 165 | 3.2 | 8.0 | 0.00 | 0.00 | 0.00 | 49 | 1013.2 |
| 20260902125517 | 25 | 164 | 3.2 | 8.0 | 0.00 | 0.00 | 0.00 | 48 | 1013.2 |
| 20260902125017 | 25 | 164 | 1.6 | 4.8 | 0.00 | 0.00 | 0.00 | 48 | 1013.2 |
| 20260902124516 | 25 | 165 | 1.6 | 4.8 | 0.00 | 0.00 | 0.00 | 47 | 1013.1 |
| 20260902124018 | 25 | 165 | 1.6 | 4.8 | 0.00 | 0.00 | 0.00 | 47 | 1013.0 |
| 20260902123515 | 25 | 165 | 1.6 | 4.8 | 0.00 | 0.00 | 0.00 | 47 | 1013.1 |
| 20260902122515 | 25 | 165 | 1.6 | 6.4 | 0.00 | 0.00 | 0.00 | 46 | 1013.0 |
| 20260902122017 | 25 | 165 | 1.6 | 6.4 | 0.00 | 0.00 | 0.00 | 46 | 1013.0 |
| 20260902121513 | 25 | 165 | 1.6 | 4.8 | 0.00 | 0.00 | 0.00 | 45 | 1012.9 |
| 20260902121013 | 25 | 165 | 1.6 | 4.8 | 0.00 | 0.00 | 0.00 | 45 | 1012.9 |
| 20260902120513 | 25 | 165 | 1.6 | 6.4 | 0.00 | 0.00 | 0.00 | 44 | 1013.0 |
| 20260902120012 | 25 | 165 | 3.2 | 6.4 | 0.00 | 0.00 | 0.00 | 44 | 1012.9 |
| 20260902115511 | 25 | 164 | 1.6 | 6.4 | 0.00 | 0.00 | 0.00 | 44 | 1012.8 |
| 20260902115011 | 25 | 165 | 3.2 | 6.4 | 0.00 | 0.00 | 0.00 | 44 | 1012.8 |
| 20260902114510 | 25 | 164 | 3.2 | 6.4 | 0.00 | 0.00 | 0.00 | 44 | 1012.8 |
| 20260902114011 | 25 | 164 | 3.2 | 6.4 | 0.00 | 0.00 | 0.00 | 44 | 1012.7 |
| 20260902113509 | 25 | 164 | 3.2 | 6.4 | 0.00 | 0.00 | 0.00 | 44 | 1012.8 |
| 20260902112509 | 25 | 164 | 1.6 | 4.8 | 0.00 | 0.00 | 0.00 | 43 | 1012.7 |
| 20260902112007 | 25 | 164 | 1.6 | 4.8 | 0.00 | 0.00 | 0.00 | 42 | 1012.7 |
| 20260902111505 | 25 | 164 | 1.6 | 6.4 | 0.00 | 0.00 | 0.00 | 42 | 1012.8 |
| 20260902111004 | 25 | 164 | 3.2 | 8.0 | 0.00 | 0.00 | 0.00 | 42 | 1012.7 |
| 20260902110506 | 25 | 163 | 3.2 | 8.0 | 0.00 | 0.00 | 0.00 | 42 | 1012.8 |
| 20260902110012 | 25 | 162 | 3.2 | 6.4 | 0.00 | 0.00 | 0.00 | 42 | 1012.7 |